DW0269 Weather Reports


Display with metric or nautical units.
time (UTC)temp
F
wind
direction
speed
MPH
gust
MPH
rain 1hr
in
rain 24hr
in
rain mn
in
humidity
%
barometer
mb
20260510062851 65 54 7.0 14.0 0.00 0.00 0.00 87 949.2
20260510061835 65 53 7.0 18.0 0.00 0.00 0.00 87 949.1
20260510061333 65 53 10.0 18.0 0.00 0.00 0.00 87 949.5
20260510060832 65 59 9.0 18.0 0.00 0.00 0.00 88 949.0
20260510060332 65 67 7.0 15.0 0.00 0.00 0.00 88 948.7
20260510055830 65 64 7.0 18.0 0.00 0.00 0.00 88 949.1
20260510055330 65 55 8.0 18.0 0.00 0.00 0.00 88 948.8
20260510053756 65 50 8.0 16.0 0.00 0.00 0.00 88 948.7
20260510053256 65 63 7.0 16.0 0.00 0.00 0.00 88 948.6
20260510052754 65 58 8.0 21.0 0.00 0.00 0.00 88 948.5
20260510052254 65 58 8.0 21.0 0.00 0.00 0.00 88 948.8
20260510051753 65 60 7.0 20.0 0.00 0.00 0.00 88 948.5
20260510051250 65 55 7.0 16.0 0.00 0.00 0.00 89 948.3
20260510050750 65 44 6.0 16.0 0.00 0.00 0.00 87 948.5
20260510050248 65 66 7.0 14.0 0.00 0.00 0.00 87 948.5
20260510045747 66 57 6.0 15.0 0.00 0.00 0.00 87 948.7
20260510045247 66 56 6.0 19.0 0.00 0.00 0.00 87 948.6
20260510044229 66 59 5.0 14.0 0.00 0.00 0.00 87 948.7
20260510043728 66 49 7.0 14.0 0.00 0.00 0.00 86 948.9
20260510043227 66 48 6.0 14.0 0.00 0.00 0.00 87 948.6
20260510042727 66 55 5.0 14.0 0.00 0.00 0.00 87 948.3
20260510042225 66 51 6.0 18.0 0.00 0.00 0.00 85 948.0
20260510041724 67 53 7.0 18.0 0.00 0.00 0.00 85 948.2
20260510041223 67 49 7.0 14.0 0.00 0.00 0.00 84 947.9
20260510040722 67 44 6.0 18.0 0.00 0.00 0.00 84 948.2
20260510040222 67 51 6.0 18.0 0.00 0.00 0.00 85 947.9
20260510035721 67 45 8.0 19.0 0.00 0.00 0.00 85 947.6
20260510034704 67 50 7.0 14.0 0.00 0.00 0.00 85 947.5
20260510033647 67 39 6.0 15.0 0.00 0.00 0.00 84 947.5
20260510032629 68 55 6.0 16.0 0.00 0.00 0.00 84 947.8
20260510031612 68 40 7.0 14.0 0.00 0.00 0.00 82 947.4
20260510031111 69 54 6.0 14.0 0.00 0.00 0.00 83 948.0
20260510030053 69 46 6.0 13.0 0.00 0.00 0.00 83 947.4
20260510025552 69 49 6.0 13.0 0.00 0.00 0.00 83 947.6
20260510025051 69 54 7.0 13.0 0.00 0.00 0.00 83 947.6
20260510024034 69 48 5.0 14.0 0.00 0.00 0.00 83 947.7
20260510023533 69 48 4.0 14.0 0.00 0.00 0.00 83 947.4
20260510023032 70 44 5.0 14.0 0.00 0.00 0.00 83 947.6
20260510022531 70 47 4.0 12.0 0.00 0.00 0.00 83 948.0
20260510021514 70 77 4.0 12.0 0.00 0.00 0.00 83 948.0
20260510021013 70 75 4.0 12.0 0.00 0.00 0.00 84 948.1
20260510020512 70 46 4.0 12.0 0.00 0.00 0.00 84 948.0
20260510020011 70 53 3.0 12.0 0.00 0.00 0.00 84 948.4
20260510015510 70 69 3.0 12.0 0.00 0.00 0.00 83 948.7
20260510015009 70 46 3.0 12.0 0.00 0.00 0.00 82 948.3
20260510013952 72 43 3.0 12.0 0.00 0.00 0.00 80 948.8
20260510013451 72 59 6.0 14.0 0.00 0.00 0.00 79 948.6
20260510012950 72 54 6.0 14.0 0.00 0.00 0.00 80 948.4
20260510012449 72 44 7.0 14.0 0.00 0.00 0.00 78 948.3
20260510011948 72 45 7.0 14.0 0.00 0.00 0.00 78 948.3
20260510011447 73 51 6.0 14.0 0.00 0.00 0.00 76 948.4
20260510010946 73 46 6.0 14.0 0.00 0.00 0.00 76 948.2
20260510010445 73 41 6.0 14.0 0.00 0.00 0.00 77 948.3
20260510005944 73 38 8.0 14.0 0.00 0.00 0.00 75 948.3
20260510005443 74 38 8.0 15.0 0.00 0.00 0.00 74 948.3
20260510004942 74 54 7.0 15.0 0.00 0.00 0.00 77 948.4
20260510004441 73 38 8.0 14.0 0.00 0.00 0.00 76 948.1
20260510003940 73 44 6.0 13.0 0.00 0.00 0.00 78 948.4
20260510003439 73 60 5.0 11.0 0.00 0.00 0.00 75 948.7
20260510002937 74 32 3.0 11.0 0.00 0.00 0.00 76 948.9
20260510002436 75 47 5.0 11.0 0.00 0.00 0.00 75 949.0
20260510001935 75 62 3.0 12.0 0.00 0.00 0.00 76 949.2
20260510001434 74 45 3.0 12.0 0.00 0.00 0.00 78 949.5
20260510000933 74 14 2.0 12.0 0.00 0.00 0.00 75 949.2
20260510000433 74 40 3.0 12.0 0.00 0.00 0.00 76 949.1
20260509235931 74 53 4.0 12.0 0.00 0.00 0.00 76 949.1
20260509235430 74 52 4.0 12.0 0.00 0.00 0.00 72 948.9
20260509234929 75 66 3.0 12.0 0.00 0.00 0.00 77 949.1
20260509233912 75 51 4.0 12.0 0.00 0.00 0.00 76 949.6
20260509233411 76 19 2.0 12.0 0.00 0.00 0.00 75 949.0
20260509232910 75 47 3.0 12.0 0.00 0.00 0.00 76 949.1
20260509232409 75 44 3.0 12.0 0.00 0.00 0.00 77 949.3
20260509231908 75 41 3.0 12.0 0.00 0.00 0.00 76 949.6
20260509231407 75 53 3.0 12.0 0.00 0.00 0.00 76 949.5
20260509230906 75 81 4.0 12.0 0.00 0.00 0.00 77 949.4
20260509230405 75 48 3.0 12.0 0.00 0.00 0.00 73 949.6
20260509225904 75 50 2.0 12.0 0.00 0.00 0.00 77 949.6
20260509225403 75 55 4.0 12.0 0.00 0.00 0.00 75 949.8
20260509224902 76 84 4.0 12.0 0.00 0.00 0.00 74 950.0
20260509224401 76 89 3.0 12.0 0.00 0.00 0.00 75 949.9
20260509223900 76 67 4.0 12.0 0.00 0.00 0.00 75 950.0
20260509223359 76 43 3.0 12.0 0.00 0.00 0.00 75 950.2
20260509222858 76 53 3.0 12.0 0.00 0.00 0.00 75 950.1
20260509222357 76 67 5.0 12.0 0.00 0.00 0.00 75 950.3
20260509221855 76 59 3.0 13.0 0.00 0.00 0.00 77 950.1
20260509221354 76 63 2.0 13.0 0.00 0.00 0.00 78 950.2
20260509220853 75 82 4.0 13.0 0.00 0.00 0.00 74 950.0
20260509220352 76 55 2.0 13.0 0.00 0.00 0.00 76 950.2
20260509215851 75 74 3.0 13.0 0.00 0.00 0.00 77 950.8
20260509215349 75 4 2.0 13.0 0.00 0.00 0.00 77 950.6
20260509214332 74 55 2.0 13.0 0.00 0.00 0.00 76 950.0
20260509213831 74 114 3.0 13.0 0.00 0.00 0.00 77 950.4
20260509213330 75 62 3.0 13.0 0.00 0.00 0.00 74 950.6
20260509212829 74 308 1.0 13.0 0.00 0.00 0.00 76 950.6
20260509212328 74 124 3.0 13.0 0.00 0.00 0.00 76 950.6
20260509211311 74 358 0.0 13.0 0.00 0.00 0.00 75 950.5
20260509210810 75 1 1.0 13.0 0.00 0.00 0.00 74 950.8
20260509210309 75 86 3.0 13.0 0.00 0.00 0.00 77 950.3
20260509205808 75 16 2.0 13.0 0.00 0.00 0.00 75 950.5
20260509205307 75 79 2.0 13.0 0.00 0.00 0.00 77 950.6
20260509204250 74 333 1.0 13.0 0.00 0.00 0.00 75 950.8
20260509203749 74 240 2.0 13.0 0.00 0.00 0.00 78 950.8
20260509203248 74 311 2.0 13.0 0.00 0.00 0.00 75 951.0
20260509202747 74 56 2.0 13.0 0.00 0.00 0.00 78 950.6
20260509202246 74 354 3.0 13.0 0.00 0.00 0.00 76 951.2
20260509201745 74 29 2.0 13.0 0.00 0.00 0.00 75 950.9
20260509200728 74 12 2.0 13.0 0.00 0.00 0.00 77 950.6
20260509200227 74 34 3.0 13.0 0.00 0.00 0.00 77 950.5
20260509195726 73 49 2.0 12.0 0.00 0.00 0.00 79 950.4
20260509195225 73 36 2.0 12.0 0.00 0.00 0.00 78 950.4
20260509194724 73 37 3.0 12.0 0.00 0.00 0.00 78 950.4
20260509194223 73 52 5.0 12.0 0.00 0.00 0.00 77 950.5
20260509193722 73 55 5.0 12.0 0.00 0.00 0.00 77 950.4
20260509193220 73 57 4.0 12.0 0.00 0.00 0.00 76 950.3
20260509192719 73 51 4.0 12.0 0.00 0.00 0.00 76 950.4
20260509191702 72 72 5.0 12.0 0.00 0.00 0.00 78 950.5
20260509191201 72 63 3.0 12.0 0.00 0.00 0.00 77 950.4
20260509190700 72 61 4.0 12.0 0.00 0.00 0.00 77 950.6
20260509190158 72 44 3.0 12.0 0.00 0.00 0.00 76 950.4
20260509185657 72 54 3.0 12.0 0.00 0.00 0.00 78 950.5
20260509185155 72 48 3.0 12.0 0.00 0.00 0.00 78 950.4
20260509184138 72 36 4.0 12.0 0.00 0.00 0.00 78 950.4
20260509183637 72 49 4.0 12.0 0.00 0.00 0.00 78 950.9
20260509183136 72 45 4.0 12.0 0.00 0.00 0.00 77 950.6
20260509182635 72 54 3.0 12.0 0.00 0.00 0.00 78 950.7
20260509182134 72 43 3.0 12.0 0.00 0.00 0.00 78 950.8
20260509181633 72 44 5.0 12.0 0.00 0.00 0.00 77 950.5
20260509181132 71 50 3.0 12.0 0.00 0.00 0.00 79 950.4
20260509180631 71 52 4.0 12.0 0.00 0.00 0.00 79 950.7
20260509180130 71 50 4.0 12.0 0.00 0.00 0.00 79 950.8
20260509175113 70 43 4.0 12.0 0.00 0.00 0.00 80 950.6
20260509174612 70 44 3.0 12.0 0.00 0.00 0.00 80 950.5
20260509173555 70 29 4.0 12.0 0.00 0.00 0.00 78 950.6
20260509173054 69 32 2.0 12.0 0.00 0.00 0.00 79 950.5
20260509172553 69 24 3.0 12.0 0.00 0.00 0.00 79 950.6
20260509172052 69 357 2.0 12.0 0.00 0.00 0.00 79 951.0
20260509171551 68 8 2.0 12.0 0.00 0.00 0.00 79 950.5
20260509171051 68 25 2.0 12.0 0.00 0.00 0.00 79 950.6
20260509170549 68 21 2.0 12.0 0.00 0.00 0.00 79 950.6
20260509170049 68 22 3.0 12.0 0.00 0.00 0.00 80 950.4
20260509165547 67 19 3.0 12.0 0.00 0.00 0.00 81 950.6
20260509165047 67 20 3.0 12.0 0.00 0.00 0.00 81 950.0
20260509164545 67 15 4.0 12.0 0.00 0.00 0.00 80 950.2
20260509164044 67 23 3.0 12.0 0.00 0.00 0.00 80 950.1
20260509163543 67 20 3.0 12.0 0.00 0.00 0.00 79 949.7
20260509163042 67 10 2.0 12.0 0.00 0.00 0.00 80 949.9
20260509162541 66 25 3.0 12.0 0.00 0.00 0.00 80 950.0
20260509161019 66 18 2.0 12.0 0.00 0.00 0.00 81 949.8
20260509160517 66 16 2.0 12.0 0.00 0.00 0.00 81 949.8
20260509160017 66 18 2.0 12.0 0.00 0.00 0.00 82 949.4
20260509154959 65 20 2.0 12.0 0.00 0.00 0.00 85 949.7
20260509154457 65 19 3.0 12.0 0.00 0.00 0.00 85 949.4
20260509153956 64 20 3.0 12.0 0.00 0.00 0.00 87 949.8
20260509153455 64 23 2.0 12.0 0.00 0.00 0.00 89 949.6
20260509152438 64 31 3.0 12.0 0.00 0.00 0.00 89 949.2
20260509151937 64 17 2.0 12.0 0.00 0.00 0.00 90 949.4
20260509150920 64 29 4.0 12.0 0.00 0.00 0.00 90 949.5
20260509150419 64 31 3.0 12.0 0.00 0.00 0.00 91 949.5
20260509145918 64 28 3.0 12.0 0.00 0.00 0.00 91 949.3
20260509145417 64 27 3.0 12.0 0.00 0.00 0.00 91 949.2
20260509144915 64 28 3.0 12.0 0.00 0.00 0.00 91 949.1
20260509143858 65 25 4.0 12.0 0.00 0.00 0.00 91 949.3
20260509143358 65 24 2.0 12.0 0.00 0.00 0.00 91 948.9
20260509142856 65 7 2.0 12.0 0.00 0.00 0.00 91 949.0
20260509142355 65 18 2.0 12.0 0.00 0.00 0.00 91 949.3
20260509141854 65 14 1.0 12.0 0.00 0.00 0.00 91 949.1
20260509141353 65 8 2.0 12.0 0.00 0.00 0.00 91 949.3
20260509140852 65 17 2.0 12.0 0.00 0.00 0.00 90 949.3
20260509140352 65 18 3.0 12.0 0.00 0.00 0.00 90 949.1
20260509135332 65 20 3.0 12.0 0.00 0.00 0.00 90 949.4
20260509134832 65 31 3.0 12.0 0.00 0.00 0.00 89 949.5
20260509134331 65 23 1.0 12.0 0.00 0.00 0.00 90 949.1
20260509133830 65 20 3.0 12.0 0.00 0.00 0.00 91 949.2
20260509133329 65 22 2.0 12.0 0.00 0.00 0.00 91 949.1
20260509132828 65 18 3.0 12.0 0.00 0.00 0.00 91 949.6
20260509132327 65 20 2.0 12.0 0.00 0.00 0.00 92 949.2
20260509131826 65 13 3.0 12.0 0.00 0.00 0.00 92 949.1
20260509131325 65 22 3.0 12.0 0.00 0.00 0.00 92 949.1
20260509130824 65 27 3.0 12.0 0.00 0.00 0.00 92 949.1
20260509130323 65 38 2.0 12.0 0.00 0.00 0.00 92 949.1
20260509125822 65 28 3.0 12.0 0.00 0.00 0.00 92 949.6
20260509124805 65 35 2.0 12.0 0.00 0.00 0.00 91 949.4
20260509124304 65 31 2.0 12.0 0.00 0.00 0.00 91 949.6
20260509123247 65 18 4.0 12.0 0.00 0.00 0.00 91 949.9
20260509122746 65 15 3.0 12.0 0.00 0.00 0.00 92 949.2
20260509122245 65 15 3.0 12.0 0.00 0.00 0.00 92 949.4
20260509121744 65 21 3.0 12.0 0.00 0.00 0.00 92 949.4
20260509121243 65 24 3.0 12.0 0.00 0.00 0.00 91 949.6
20260509120742 65 18 3.0 12.0 0.00 0.00 0.00 91 949.6
20260509120240 65 14 3.0 12.0 0.00 0.00 0.00 92 949.6
20260509115739 65 21 2.0 12.0 0.00 0.00 0.00 92 949.9
20260509115238 65 21 2.0 12.0 0.00 0.00 0.00 93 949.9
20260509114737 65 28 0.0 12.0 0.00 0.00 0.00 93 950.1
20260509114236 65 23 2.0 12.0 0.00 0.00 0.00 93 950.0
20260509113735 65 24 1.0 12.0 0.00 0.00 0.00 93 950.2
20260509113234 65 24 1.0 12.0 0.00 0.00 0.00 93 950.2
20260509112733 65 29 2.0 12.0 0.00 0.00 0.00 93 950.2
20260509112232 65 33 2.0 12.0 0.00 0.00 0.00 93 950.0
20260509111731 65 44 2.0 12.0 0.00 0.00 0.00 93 950.3
20260509111230 65 37 3.0 12.0 0.00 0.00 0.00 93 950.2
20260509110729 65 61 2.0 12.0 0.00 0.00 0.00 92 950.1
20260509110227 65 44 3.0 12.0 0.00 0.00 0.00 91 950.0
20260509105726 66 41 4.0 12.0 0.00 0.00 0.00 92 950.2
20260509105225 66 60 3.0 12.0 0.00 0.00 0.00 92 950.0
20260509104724 66 44 4.0 12.0 0.00 0.00 0.00 92 950.2
20260509104223 66 42 4.0 12.0 0.00 0.00 0.00 92 950.1
20260509103721 66 38 5.0 12.0 0.00 0.00 0.00 92 950.1
20260509102704 65 45 4.0 12.0 0.00 0.00 0.00 92 950.2
20260509102203 66 42 3.0 12.0 0.00 0.00 0.00 92 950.3
20260509101702 66 39 4.0 12.0 0.00 0.00 0.00 92 950.4
20260509101201 65 26 4.0 12.0 0.00 0.00 0.00 92 950.3
20260509100700 65 34 5.0 12.0 0.00 0.00 0.00 93 950.4
20260509095642 65 38 3.0 12.0 0.00 0.00 0.00 93 950.7
20260509095141 65 40 4.0 12.0 0.00 0.00 0.00 92 950.7
20260509094640 65 41 3.0 12.0 0.00 0.00 0.00 92 950.8
20260509094139 65 38 4.0 12.0 0.00 0.00 0.00 92 950.8
20260509093638 65 44 4.0 12.0 0.00 0.00 0.00 92 951.0
20260509093137 65 39 3.0 12.0 0.00 0.00 0.00 92 951.2
20260509092119 65 38 3.0 12.0 0.00 0.00 0.00 92 951.4
20260509091618 65 38 4.0 12.0 0.00 0.00 0.00 92 951.2
20260509091117 65 44 4.0 12.0 0.00 0.00 0.00 92 951.4
20260509090615 65 35 4.0 12.0 0.00 0.00 0.00 92 951.5
20260509090114 66 29 3.0 12.0 0.00 0.00 0.00 91 951.4
20260509085613 66 26 3.0 12.0 0.00 0.00 0.00 90 951.4
20260509085112 66 27 2.0 12.0 0.00 0.00 0.00 90 951.5
20260509084611 66 21 2.0 12.0 0.00 0.00 0.00 91 951.7
20260509083554 66 25 1.0 12.0 0.00 0.00 0.00 91 951.3
20260509083053 66 19 2.0 12.0 0.00 0.00 0.00 92 951.4
20260509082552 66 21 3.0 12.0 0.00 0.00 0.00 91 951.4
20260509082050 66 32 3.0 12.0 0.00 0.00 0.00 91 951.3
20260509081548 66 26 3.0 12.0 0.00 0.00 0.00 91 951.4
20260509081047 66 29 3.0 12.0 0.00 0.00 0.00 91 951.5
20260509080546 66 35 3.0 12.0 0.00 0.00 0.00 91 951.6
20260509080045 66 35 3.0 12.0 0.00 0.00 0.00 91 951.3
20260509075544 66 34 3.0 12.0 0.00 0.00 0.00 91 951.3
20260509075043 66 27 3.0 12.0 0.00 0.00 0.00 91 951.0
20260509074025 66 26 3.0 12.0 0.00 0.00 0.00 91 951.5
20260509073524 66 18 3.0 12.0 0.00 0.00 0.00 91 951.3
20260509073023 66 18 3.0 12.0 0.00 0.00 0.00 91 951.1
20260509072522 66 20 3.0 12.0 0.00 0.00 0.00 91 951.0
20260509072021 66 27 3.0 12.0 0.00 0.00 0.00 91 951.0
20260509071520 66 27 4.0 12.0 0.00 0.00 0.00 90 951.0
20260509071019 67 33 4.0 12.0 0.00 0.00 0.00 90 951.3
20260509070518 67 23 4.0 12.0 0.00 0.00 0.00 90 951.0
20260509070017 67 29 4.0 12.0 0.00 0.00 0.00 89 951.0
20260509065516 67 22 3.0 12.0 0.00 0.00 0.00 88 951.2
20260509065015 67 30 4.0 12.0 0.00 0.00 0.00 88 951.1
20260509064513 67 13 3.0 12.0 0.00 0.00 0.00 88 951.0
20260509064012 67 21 2.0 12.0 0.00 0.00 0.00 88 951.0